Location: *
(47.2969°N, 10.2930°E)
Time: 22:26:23
(UTC+00:00)

Cosmos 1850 Rocket - Pass Details

Date: 09 April 2020
Orbit: 754 x 786 km, 74.0° (Epoch: 03 June)

Event Time Altitude Azimuth Distance (km) Brightness Sun altitude
Exits shadow 20:24:23 24° 198° (SSW) 1,511 5.3 -22.4°
Maximum altitude 20:27:31 87° 112° (ESE) 762 3.8 -22.8°
Drops below altitude 10° 20:32:43 10° 23° (NNE) 2,290 6.7 -23.5°
Sets 20:35:06 0° 23° (NNE) 3,220 7.5 -23.7°
